Location: Haram ta Haram Freeway
(35.0583°N, 51.4202°E)
Time: 17:24:17
(UTC+03:30)

IRIDIUM 33 DEB - Pass Details

Date: 01 December 2021
Orbit: 663 x 816 km, 86.4° (Epoch: 18 January)

Event Time Altitude Azimuth Distance (km) Brightness Sun altitude
Rises 17:32:24 0° 126° (SE) 3,347 ? -8.3°
Reaches altitude 10° 17:37:10 10° 88° (E) 2,413 ? -9.2°
Enters shadow 17:37:29 10° 85° (E) 2,394 ? -9.3°
